Temperature
25 24 24 24 30 30 29 29 29 28 27 26 26 26 26 26 26 23 20 19 19 19 18 18 18 18 18 18 18 18 18 18 18 18 18 18 18 18 18 18 18 18 18 18 18 18 18 18 18
24 24 25 29 31 29 28 29 28 28 27 26 25 25 25 24 22 21 20 19 19 19 18 18 18 18 19 18 18 18 18 18 18 18 18 18 18 18 18 18 18 18 18 18 18 18 18 18 18
25 25 28 32 30 29 28 29 28 27 26 26 26 25 24 23 21 21 20 19 19 18 18 18 18 18 18 18 18 18 18 18 18 18 18 18 18 18 18 18 18 18 18 18 18 18 18 18 18
25 28 31 32 30 30 29 29 28 28 27 26 26 25 23 21 21 20 19 19 19 18 18 18 18 18 18 18 18 18 18 18 18 18 18 18 18 18 18 18 18 18 18 18 18 18 18 18 18
27 31 32 31 30 30 30 29 28 28 27 26 26 25 22 20 20 20 19 19 19 19 18 18 19 19 18 18 18 18 18 18 18 18 18 18 18 18 18 18 18 18 18 18 18 18 18 18 18
31 33 32 30 30 30 30 28 28 28 27 26 26 25 22 20 20 20 20 20 19 19 19 18 19 19 19 18 18 18 18 18 18 18 18 18 18 18 18 18 18 18 18 18 18 18 18 18 18
32 33 32 31 30 30 30 29 29 28 27 26 26 25 22 21 20 20 19 19 19 19 19 18 18 18 19 18 18 18 18 18 18 18 18 18 18 18 18 18 18 18 18 18 18 17 18 18 18
31 33 32 32 31 30 29 29 28 28 27 25 25 26 23 20 20 20 19 19 19 19 19 18 18 18 18 18 18 18 18 18 18 18 18 18 18 18 18 18 18 18 18 18 18 17 18 18 18
31 33 32 32 31 31 30 29 27 27 26 25 25 25 23 20 20 20 20 19 19 19 19 19 19 18 18 18 18 18 18 18 18 18 18 18 17 17 17 17 18 18 18 18 18 18 18 18 18
32 33 32 32 32 31 30 29 28 28 27 26 24 23 21 20 20 21 21 20 20 19 19 19 18 18 18 18 18 18 18 18 18 17 17 17 17 17 17 18 18 18 18 18 18 18 18 17 17
33 32 32 32 31 31 30 30 29 29 29 27 25 23 21 21 21 21 21 21 20 19 19 19 18 18 18 18 18 18 18 18 18 17 17 18 17 17 17 17 17 18 18 17 17 17 17 17 17
33 32 32 32 31 31 31 30 29 29 28 27 25 23 22 22 22 22 21 21 20 19 19 19 19 18 18 18 18 18 18 18 18 18 18 18 18 18 18 17 17 17 17 17 17 17 17 17 17
33 32 31 31 31 31 30 30 29 28 27 26 24 23 22 22 22 22 21 21 20 20 19 19 19 19 19 18 18 18 18 18 18 18 18 17 18 18 18 17 17 18 18 17 17 17 17 17 17
32 32 31 31 31 30 31 30 29 28 26 25 24 23 23 23 22 22 21 21 20 20 20 19 19 19 19 19 18 18 18 18 18 18 18 18 18 18 18 18 17 18 18 18 17 17 17 17 17
31 32 32 32 31 31 31 30 30 28 26 25 25 24 23 23 22 22 21 21 21 20 19 19 19 19 19 19 18 18 18 18 18 18 18 18 18 18 18 18 18 18 18 17 17 17 17 17 18
33 33 32 32 32 31 31 31 30 27 27 26 25 24 23 23 22 22 21 21 21 20 20 19 19 19 19 19 19 18 18 18 18 18 18 18 18 18 18 18 18 18 18 18 18 18 18 18 18
32 32 32 32 32 32 32 31 30 28 27 27 26 25 24 23 22 22 21 21 21 20 20 20 19 19 19 19 19 18 18 18 18 18 18 18 18 18 18 18 18 18 18 18 18 18 18 18 18
32 32 32 32 32 32 32 32 30 28 28 28 26 26 24 24 23 22 22 21 21 20 20 20 20 20 19 19 19 18 18 18 18 18 18 18 18 18 18 18 18 18 18 18 18 18 18 18 18
32 32 32 32 32 32 32 32 31 29 28 28 27 26 25 24 24 23 22 22 21 21 21 20 20 20 20 19 19 18 18 18 18 18 18 18 18 18 18 18 18 18 18 18 18 18 18 18 18
32 32 32 32 31 31 32 32 32 30 29 28 28 26 25 25 24 23 22 22 21 21 21 21 21 20 20 19 19 19 19 18 18 18 18 18 18 18 18 18 18 18 18 18 17 17 18 18 18
31 32 32 31 31 31 31 31 31 31 29 28 28 27 26 26 25 23 23 22 22 21 21 21 21 20 20 19 19 19 19 18 18 18 18 18 18 18 18 18 18 18 17 17 17 17 17 18 18
31 32 32 31 31 31 31 31 31 31 30 29 28 28 27 26 25 24 23 23 22 22 22 22 21 21 20 20 19 19 18 18 18 18 18 18 18 18 18 18 18 18 17 17 17 17 17 17 17
31 31 31 31 31 31 31 31 32 31 31 31 30 28 28 27 26 25 24 23 23 22 22 21 21 21 21 20 20 19 19 18 18 18 18 18 18 18 18 18 18 18 17 17 17 17 17 17 17
30 30 30 31 32 30 31 31 31 32 31 31 30 29 28 27 26 25 24 23 23 22 22 21 21 21 21 20 20 19 19 19 18 18 18 18 18 18 18 18 18 18 17 17 17 17 17 17 17
30 30 30 29 30 30 31 30 31 31 31 31 30 29 27 27 26 25 24 23 22 22 22 21 21 21 21 20 20 20 19 19 19 18 18 18 18 18 18 18 18 17 17 17 17 17 17 17 17
30 31 30 29 30 31 30 30 32 31 30 29 29 28 27 27 26 25 24 23 22 22 22 21 21 21 21 20 20 20 19 19 18 18 18 18 18 18 18 17 17 17 17 17 17 17 17 17 17
30 31 32 31 31 30 31 31 31 31 30 30 29 28 27 27 26 25 24 23 22 22 22 21 21 21 21 20 20 20 19 19 18 18 18 18 18 17 17 17 17 17 17 17 17 17 16 16 16
31 32 31 30 29 29 30 30 31 31 30 30 29 28 27 26 25 25 24 23 22 22 21 21 21 21 20 20 20 19 19 19 18 18 18 18 18 18 17 17 17 17 17 17 17 16 16 16 16
29 30 30 30 31 30 30 31 32 31 30 30 30 28 27 26 25 24 23 23 22 22 21 21 21 21 20 20 20 19 19 19 18 18 18 18 18 17 17 17 17 17 16 16 16 16 16 16 16
31 30 30 29 29 30 30 31 31 31 31 30 29 27 26 25 25 24 23 22 22 21 21 21 21 20 20 20 20 19 19 19 18 18 18 17 17 17 17 17 17 16 16 16 16 16 16 15 15
Wind_Speed
9 8 5 4 2 10 15 12 11 10 8 9 8 7 9 10 8 10 9 10 11 11 13 12 11 12 13 13 13 14 14 15 15 15 15 14 14 14 14 15 15 15 15 16 16 16 17 16 17
5 5 5 1 7 12 13 11 11 10 9 9 8 9 10 10 10 11 10 11 11 11 12 12 12 12 12 12 13 13 13 14 14 14 14 14 14 14 14 14 14 14 15 15 15 16 16 15 15
5 6 2 5 12 14 13 11 11 10 8 6 7 8 8 9 9 8 11 12 11 11 12 13 11 11 11 12 12 12 13 12 13 13 13 13 13 13 13 13 14 14 14 14 15 15 15 14 14
4 3 2 9 16 14 12 10 9 10 9 7 8 10 8 7 6 10 13 12 12 11 12 13 10 11 11 11 11 12 12 12 12 12 12 12 12 12 12 13 13 13 13 13 14 13 13 13 13
4 1 8 13 15 12 10 8 6 7 7 7 8 11 10 8 11 14 13 12 11 11 11 13 10 10 10 10 10 11 11 11 11 11 11 11 11 11 12 12 12 12 12 12 12 12 12 11 11
1 2 9 12 13 10 9 7 7 9 10 9 11 12 8 9 12 12 12 10 10 10 11 13 11 10 9 9 9 10 10 10 10 10 10 10 10 10 11 11 11 11 11 11 11 11 11 11 10
2 6 11 12 11 10 7 6 6 8 9 9 8 10 9 11 12 12 11 9 9 9 9 10 11 11 9 8 8 9 9 9 9 10 10 9 9 9 9 9 9 9 9 9 10 10 10 9 9
2 4 10 10 10 10 7 7 7 7 9 9 5 7 11 13 12 12 11 9 9 8 8 7 8 8 9 10 8 7 8 8 8 8 8 8 8 8 8 8 8 8 8 8 8 8 8 8 7
2 4 9 9 9 9 8 8 7 7 10 7 5 7 15 17 14 12 11 9 8 7 6 6 7 6 6 7 9 8 8 7 7 8 6 5 5 7 8 9 8 6 7 7 7 7 7 7 8
1 7 10 7 7 8 7 6 8 7 9 9 10 13 17 16 14 13 11 11 10 8 7 6 5 5 4 5 6 4 5 6 4 5 4 4 4 3 5 9 6 5 5 6 6 6 7 7 7
3 7 7 6 6 7 7 7 6 6 6 8 13 17 18 16 14 12 10 9 9 8 7 6 5 5 4 4 4 3 3 4 4 4 3 3 2 3 3 4 6 5 5 4 7 7 4 3 2
4 6 5 5 6 6 6 6 5 3 6 8 13 18 17 16 13 12 10 9 8 7 7 6 6 5 3 2 3 3 3 3 3 4 2 3 2 1 1 1 2 3 3 1 2 2 2 1 2
4 5 5 6 6 6 6 6 5 5 7 11 16 17 16 14 13 11 9 8 8 7 7 6 5 4 4 3 2 2 2 1 2 2 2 2 2 2 1 1 1 2 2 3 2 2 2 3 3
4 5 6 6 6 6 5 6 5 7 10 13 15 16 15 13 12 11 10 9 8 8 7 7 7 6 5 4 3 2 2 2 1 2 2 3 2 2 2 3 3 3 2 2 2 2 3 3 3
5 6 7 6 5 5 5 5 5 9 12 13 14 13 13 12 12 11 10 9 9 8 8 7 7 7 6 5 4 3 3 3 2 2 3 4 4 3 4 3 3 3 3 3 4 4 4 4 4
6 7 6 5 4 4 6 5 8 10 12 12 13 12 12 12 12 10 10 9 8 8 8 8 7 7 7 5 4 4 3 3 3 3 3 4 4 4 5 4 4 4 5 4 3 4 4 4 4
7 7 5 6 5 4 5 4 8 10 11 11 12 12 12 12 12 11 10 10 9 8 8 8 7 6 6 6 5 5 4 4 4 4 4 4 4 5 5 4 4 5 4 4 5 4 4 4 5
7 6 5 4 5 5 5 3 7 9 10 11 12 12 12 12 12 12 11 10 9 9 9 8 8 7 6 5 5 4 4 4 5 4 4 5 5 5 5 5 4 5 4 4 5 5 5 5 5
5 5 4 3 3 5 5 5 6 9 11 11 12 12 12 12 11 10 11 10 10 9 9 9 9 8 7 5 5 5 4 4 4 4 4 5 6 5 5 4 4 4 4 5 6 6 7 6 5
7 7 5 4 2 4 4 5 5 9 11 12 12 12 12 12 11 11 11 10 10 10 10 10 10 9 8 6 5 4 4 4 3 3 3 5 5 5 5 4 5 5 4 6 6 6 5 5 4
10 8 6 4 4 5 6 7 6 7 9 10 11 12 12 12 13 13 12 11 11 11 11 10 10 8 8 7 5 4 4 4 4 3 3 4 5 5 5 5 5 5 6 5 6 6 6 6 4
10 7 5 5 7 5 5 5 5 7 8 10 12 13 13 13 12 12 12 11 11 11 10 10 9 8 8 7 7 7 5 5 4 3 3 4 4 5 5 5 5 6 6 6 7 6 6 6 6
6 5 6 7 7 6 6 7 2 5 6 8 10 12 12 12 12 12 12 11 10 10 9 9 8 8 8 7 7 7 6 5 3 3 3 4 3 4 4 5 5 5 5 5 6 5 5 5 6
7 7 6 7 8 9 6 7 3 3 2 3 6 9 11 11 11 10 10 9 9 9 9 9 8 8 8 8 7 7 6 5 4 3 3 3 3 3 4 4 4 4 4 4 5 4 5 4 5
11 10 8 9 9 8 4 7 3 1 1 2 3 6 8 10 10 10 10 10 10 10 9 9 9 8 7 7 7 6 6 5 5 4 3 3 3 2 3 3 3 3 4 4 3 3 4 4 4
15 15 11 9 9 7 6 7 3 1 0 1 3 4 7 9 10 10 10 10 10 10 9 9 9 7 7 7 6 5 5 4 3 3 3 3 3 3 2 2 2 3 3 3 2 2 2 2 3
14 14 12 10 9 8 7 5 4 3 4 4 5 6 7 8 9 10 10 10 10 9 9 9 8 7 6 6 5 4 4 3 3 2 2 2 2 2 2 2 2 2 3 2 2 2 2 1 2
9 11 9 10 9 10 8 8 5 5 5 6 6 6 7 8 9 10 10 9 9 9 8 8 7 7 6 6 5 4 3 2 2 1 0 1 1 2 2 2 2 3 3 2 2 1 1 1 1
11 13 10 10 10 9 8 5 2 3 4 5 6 7 7 9 10 10 9 9 9 9 9 8 8 7 6 5 4 3 3 3 2 1 1 1 1 2 2 2 3 3 2 2 2 2 2 2 2
14 14 14 12 9 10 9 3 6 3 3 5 6 7 8 8 9 10 10 10 9 9 9 8 8 7 6 6 6 5 4 3 3 2 1 1 2 2 2 2 2 2 3 3 2 2 3 3 3
Wind_Direction
190 189 213 238 123 76 70 71 78 88 78 75 74 63 65 50 53 90 109 115 117 115 112 110 96 96 94 93 93 93 93 94 94 94 94 94 95 95 96 97 97 97 98 99 99 100 100 101 102
185 195 228 238 70 79 72 72 77 76 94 100 83 77 78 71 72 104 121 121 122 114 112 105 102 99 97 96 96 96 95 94 95 95 94 94 95 95 95 96 98 99 98 98 100 101 102 103 105
199 229 286 68 62 67 77 79 87 92 99 97 89 71 69 83 96 110 120 129 121 110 109 105 105 101 99 97 96 97 96 96 96 95 94 94 94 95 95 95 97 98 98 98 101 102 104 105 106
222 212 99 76 74 68 79 91 100 103 93 91 102 91 82 75 98 117 127 129 122 121 116 109 106 102 99 97 96 98 97 97 95 94 93 93 93 95 96 95 96 98 99 100 101 104 106 106 109
241 104 90 82 78 77 81 85 89 91 93 101 104 103 93 84 108 122 131 132 127 121 116 114 108 105 101 97 96 98 97 96 95 94 93 93 93 95 96 96 97 98 100 102 104 107 109 108 109
217 93 84 83 84 86 88 91 93 94 103 108 112 109 97 118 126 131 133 132 127 124 119 117 115 107 104 102 99 99 98 97 98 97 97 97 96 96 97 98 99 100 103 105 108 110 112 112 111
21 74 81 87 91 91 86 91 91 104 112 112 117 111 121 135 133 135 132 130 129 127 124 129 132 127 121 108 102 102 101 100 100 99 100 101 100 100 102 101 100 101 104 107 110 114 113 115 115
338 94 90 86 88 89 102 101 97 108 107 117 126 124 140 144 142 138 137 139 137 134 128 130 127 128 137 129 116 109 107 107 105 102 105 115 121 121 123 122 108 105 106 109 114 119 119 120 122
279 90 84 79 84 99 122 120 108 107 122 121 101 107 130 141 146 147 147 147 146 142 139 138 133 133 131 126 129 138 133 131 142 130 133 162 141 128 135 99 108 112 113 116 121 128 134 143 145
5 74 76 71 78 106 126 124 128 136 132 126 117 116 130 146 154 158 159 159 158 158 156 147 143 135 138 126 131 140 140 135 136 114 127 124 97 94 103 113 122 126 132 139 141 152 176 201 166
61 71 84 93 96 112 127 126 137 141 134 145 147 145 149 155 161 165 164 163 160 164 164 158 153 155 156 140 147 134 130 135 143 129 138 115 131 140 138 141 149 157 172 169 158 186 192 179 156
95 84 87 105 118 126 122 125 129 106 80 123 147 151 155 162 167 169 168 168 165 170 171 169 161 163 166 168 156 168 163 156 148 145 187 151 149 159 140 173 157 167 161 168 193 182 174 198 196
108 98 102 113 127 123 127 119 106 98 106 129 143 154 161 166 167 170 167 170 170 176 183 178 177 174 183 188 217 182 182 185 159 165 175 220 203 204 191 250 273 241 188 186 210 226 196 208 209
100 117 124 124 126 139 140 126 124 113 129 138 151 161 168 170 171 170 174 179 182 184 189 187 190 184 191 193 204 221 218 211 247 221 220 243 243 234 232 228 248 254 246 251 246 229 228 229 227
149 146 139 134 141 152 162 141 131 135 145 150 158 165 169 174 176 180 182 186 187 188 192 195 196 191 197 207 215 219 233 228 241 263 257 262 260 248 248 248 243 254 250 240 245 249 246 238 230
186 189 167 147 165 171 221 120 131 151 160 161 165 169 176 181 187 187 187 191 192 190 190 198 203 194 199 211 226 239 249 251 252 257 261 264 272 262 260 256 253 257 255 252 244 246 253 251 247
198 203 172 151 180 186 222 121 135 163 172 172 175 178 184 185 194 193 194 195 196 196 195 197 203 206 214 213 219 242 252 258 265 265 268 270 268 266 263 267 264 257 252 251 257 237 253 256 258
195 197 180 167 171 203 215 168 149 175 188 184 184 187 190 194 197 195 197 197 197 199 199 202 203 208 215 219 216 235 249 255 260 267 266 267 266 265 268 264 263 262 257 251 251 257 251 258 262
204 213 188 154 161 216 222 215 179 184 197 197 193 193 196 200 196 192 195 198 199 202 201 204 208 203 207 215 220 224 235 250 256 258 261 265 267 263 260 275 271 266 262 263 255 252 248 247 252
212 211 196 165 166 234 240 232 199 195 205 207 201 200 201 198 194 192 197 200 203 202 204 206 210 208 208 212 224 228 241 247 246 264 272 271 269 267 257 259 268 265 262 261 260 252 260 254 236
215 222 212 199 194 216 251 227 199 197 209 210 212 209 206 201 197 195 199 203 203 204 205 206 207 208 210 211 212 213 218 240 242 248 259 269 270 270 273 272 270 274 269 264 262 256 255 259 252
212 213 220 209 221 213 239 255 186 191 200 206 209 208 206 203 202 200 199 202 202 200 199 201 201 204 204 205 214 219 231 240 246 251 262 261 261 267 265 264 266 267 269 272 266 257 256 254 255
211 181 208 218 235 243 224 264 175 171 209 210 207 207 206 203 201 201 202 199 198 195 192 192 193 197 200 205 209 220 234 242 248 248 257 264 263 268 270 270 271 270 271 274 277 275 260 255 257
163 165 183 219 235 237 232 254 247 169 225 208 193 199 204 201 199 199 197 190 188 187 186 185 184 191 195 200 210 219 228 236 251 255 264 264 266 273 279 277 277 275 276 272 267 265 258 262 261
196 202 207 216 224 229 198 242 255 48 290 251 196 188 193 193 192 189 186 179 176 176 178 180 180 184 188 196 207 214 222 230 241 256 261 275 287 288 291 292 286 283 279 274 268 256 267 268 261
209 219 225 230 230 212 191 238 236 141 230 197 184 175 176 179 179 178 176 172 169 170 173 178 179 181 183 186 193 208 214 228 240 249 274 284 293 302 315 306 302 305 303 293 283 277 272 270 267
205 222 237 241 248 244 213 226 223 189 173 158 153 154 163 168 169 168 166 164 163 165 169 172 171 171 173 177 179 191 204 223 246 255 257 282 300 315 338 339 337 332 330 322 304 318 317 313 294
231 212 217 234 232 235 226 227 221 186 181 162 149 143 149 156 159 159 158 157 156 156 156 159 158 159 162 169 175 168 179 190 207 235 330 356 357 357 351 354 353 349 351 343 334 348 29 22 6
197 207 216 228 237 240 234 214 162 185 178 172 151 141 145 149 149 147 145 144 146 148 150 151 149 150 153 154 152 151 149 149 150 140 95 51 22 13 3 2 3 3 9 14 24 28 46 46 35
212 211 208 216 220 237 253 201 116 147 170 166 152 143 141 140 140 142 140 143 147 148 148 149 148 148 153 150 145 142 135 131 124 108 77 59 48 34 27 21 21 22 28 33 41 42 48 52 47
Height
1501 1500 1501 1502 1496 1498 1507 1508 1506 1510 1514 1518 1519 1519 1520 1523 1525 1538 1543 1543 1544 1545 1545 1544 1544 1545 1545 1546 1546 1546 1546 1546 1546 1547 1547 1547 1548 1548 1548 1549 1549 1550 1550 1551 1552 1552 1553 1553 1554
1503 1502 1504 1499 1495 1509 1515 1509 1511 1514 1518 1521 1522 1523 1525 1530 1535 1540 1542 1544 1546 1547 1548 1547 1547 1547 1548 1548 1548 1549 1549 1549 1549 1550 1550 1550 1551 1551 1552 1552 1552 1553 1553 1554 1554 1555 1556 1556 1557
1504 1504 1504 1495 1501 1510 1515 1512 1515 1518 1521 1522 1524 1527 1530 1536 1540 1542 1544 1546 1548 1549 1549 1548 1549 1550 1550 1551 1551 1551 1552 1552 1552 1553 1553 1553 1554 1554 1554 1555 1555 1556 1556 1557 1557 1557 1558 1559 1560
1506 1506 1502 1499 1509 1509 1511 1514 1517 1519 1523 1524 1525 1530 1536 1541 1543 1545 1546 1548 1550 1551 1552 1550 1551 1552 1553 1553 1554 1554 1554 1555 1555 1555 1556 1556 1556 1557 1557 1557 1558 1558 1559 1559 1560 1560 1561 1561 1562
1507 1503 1499 1506 1511 1511 1513 1516 1518 1519 1523 1526 1527 1532 1539 1544 1544 1546 1548 1551 1552 1553 1554 1553 1553 1554 1555 1555 1556 1556 1557 1557 1557 1558 1558 1558 1559 1559 1559 1560 1560 1561 1561 1562 1562 1563 1563 1564 1564
1506 1498 1503 1513 1515 1513 1515 1519 1520 1522 1526 1529 1531 1534 1542 1546 1547 1549 1551 1553 1554 1555 1556 1555 1555 1556 1557 1557 1558 1558 1559 1559 1559 1560 1560 1560 1561 1561 1562 1562 1562 1563 1563 1564 1564 1565 1565 1566 1567
1505 1498 1506 1510 1514 1515 1518 1520 1521 1523 1527 1531 1533 1536 1543 1547 1549 1550 1552 1554 1556 1557 1558 1558 1559 1558 1559 1559 1560 1560 1561 1561 1561 1562 1562 1562 1563 1563 1564 1564 1564 1565 1565 1566 1566 1567 1567 1568 1568
1507 1501 1505 1508 1513 1516 1519 1522 1524 1525 1530 1534 1535 1536 1543 1547 1549 1551 1553 1555 1557 1558 1559 1560 1561 1561 1562 1562 1561 1562 1562 1563 1563 1563 1564 1564 1565 1565 1565 1566 1566 1567 1567 1567 1568 1569 1569 1569 1570
1508 1503 1509 1509 1511 1515 1519 1522 1526 1529 1532 1535 1536 1538 1542 1546 1550 1552 1554 1556 1557 1559 1560 1562 1563 1563 1564 1565 1563 1564 1564 1564 1565 1565 1565 1566 1568 1568 1568 1568 1568 1568 1568 1569 1569 1570 1571 1571 1571
1506 1506 1510 1510 1510 1514 1519 1522 1526 1528 1531 1535 1539 1542 1544 1547 1550 1553 1555 1557 1558 1560 1561 1562 1563 1564 1565 1566 1565 1567 1567 1566 1567 1567 1568 1568 1568 1569 1570 1568 1569 1569 1570 1570 1570 1571 1572 1573 1574
1507 1508 1511 1513 1514 1516 1519 1522 1525 1526 1528 1533 1538 1542 1545 1548 1551 1553 1556 1558 1559 1560 1562 1563 1564 1564 1566 1566 1567 1568 1568 1568 1568 1568 1568 1569 1569 1570 1571 1571 1570 1570 1571 1572 1572 1572 1574 1575 1575
1510 1512 1514 1515 1517 1518 1520 1522 1525 1526 1529 1534 1538 1542 1545 1548 1551 1554 1556 1558 1559 1561 1562 1563 1564 1565 1565 1567 1568 1568 1569 1569 1570 1569 1570 1570 1571 1571 1571 1571 1572 1572 1572 1572 1573 1573 1574 1574 1574
1511 1513 1515 1517 1518 1520 1522 1523 1526 1529 1532 1535 1539 1543 1546 1549 1552 1554 1556 1558 1559 1561 1562 1563 1564 1564 1565 1566 1567 1569 1569 1570 1570 1570 1570 1570 1571 1571 1571 1571 1571 1572 1572 1572 1572 1573 1573 1573 1574
1513 1515 1516 1517 1519 1521 1522 1524 1527 1531 1534 1537 1540 1543 1546 1549 1552 1554 1556 1558 1559 1561 1562 1564 1564 1565 1565 1566 1567 1568 1569 1569 1570 1570 1570 1570 1571 1571 1571 1570 1570 1571 1571 1572 1572 1572 1572 1573 1573
1515 1514 1515 1517 1519 1521 1522 1523 1526 1531 1535 1538 1541 1544 1547 1550 1552 1554 1556 1557 1559 1561 1562 1563 1564 1565 1566 1567 1567 1569 1569 1570 1570 1570 1569 1569 1570 1570 1570 1570 1570 1570 1571 1570 1571 1571 1572 1572 1572
1512 1511 1515 1516 1517 1520 1521 1523 1526 1531 1534 1537 1541 1544 1547 1549 1552 1554 1555 1557 1559 1560 1561 1562 1565 1565 1566 1566 1567 1568 1569 1569 1569 1569 1569 1569 1569 1568 1568 1569 1569 1569 1569 1569 1569 1570 1570 1570 1571
1511 1513 1514 1517 1516 1518 1518 1520 1526 1530 1533 1536 1539 1542 1545 1548 1551 1552 1554 1556 1558 1559 1560 1561 1563 1564 1565 1566 1566 1567 1567 1567 1568 1568 1568 1568 1567 1567 1567 1567 1567 1567 1568 1567 1568 1568 1568 1568 1568
1514 1512 1514 1516 1515 1517 1517 1518 1523 1529 1531 1533 1537 1540 1543 1546 1548 1551 1553 1555 1556 1557 1558 1560 1561 1562 1563 1564 1565 1565 1566 1566 1566 1566 1566 1566 1566 1566 1565 1565 1565 1565 1565 1565 1565 1565 1565 1565 1566
1508 1511 1514 1514 1514 1516 1516 1517 1519 1525 1529 1531 1534 1538 1541 1544 1547 1549 1551 1553 1554 1555 1556 1557 1559 1560 1561 1562 1563 1564 1564 1564 1565 1565 1564 1564 1564 1564 1563 1563 1563 1563 1562 1562 1562 1562 1563 1563 1563
1510 1514 1515 1515 1515 1516 1516 1515 1515 1521 1525 1527 1531 1535 1538 1541 1544 1546 1548 1550 1552 1553 1554 1555 1557 1558 1559 1560 1560 1561 1562 1563 1563 1563 1562 1562 1562 1561 1561 1560 1560 1560 1559 1559 1559 1559 1559 1560 1560
1512 1513 1513 1516 1516 1514 1516 1516 1514 1517 1522 1525 1528 1531 1534 1537 1540 1543 1545 1547 1549 1550 1551 1553 1554 1556 1557 1558 1558 1559 1560 1560 1560 1560 1560 1560 1559 1559 1558 1558 1557 1557 1556 1556 1556 1556 1556 1556 1557
1514 1509 1511 1515 1519 1517 1518 1522 1513 1512 1516 1520 1524 1527 1530 1534 1537 1540 1542 1544 1546 1548 1549 1551 1552 1554 1555 1556 1557 1558 1558 1559 1559 1558 1558 1557 1556 1556 1555 1555 1554 1554 1554 1553 1553 1553 1553 1553 1553
1508 1510 1511 1513 1516 1517 1516 1520 1511 1510 1514 1514 1518 1522 1526 1530 1533 1536 1539 1541 1544 1546 1547 1549 1550 1552 1553 1554 1554 1555 1556 1557 1557 1556 1556 1555 1555 1554 1553 1552 1552 1551 1551 1550 1549 1549 1549 1549 1549
1511 1513 1514 1513 1513 1528 1519 1522 1518 1507 1510 1510 1514 1519 1523 1526 1530 1533 1536 1539 1541 1543 1545 1547 1548 1549 1550 1551 1552 1553 1554 1554 1554 1554 1554 1554 1553 1552 1551 1551 1550 1549 1548 1547 1546 1546 1546 1546 1546
1510 1515 1527 1530 1529 1526 1515 1520 1515 1506 1507 1509 1512 1516 1520 1524 1527 1530 1533 1536 1538 1540 1542 1545 1546 1547 1548 1549 1550 1551 1552 1552 1553 1553 1553 1552 1552 1551 1550 1549 1548 1547 1545 1545 1544 1543 1543 1543 1543
1506 1507 1523 1534 1530 1520 1519 1519 1507 1505 1508 1510 1512 1515 1518 1521 1525 1528 1531 1533 1536 1538 1541 1543 1544 1545 1547 1548 1548 1549 1550 1551 1551 1551 1551 1551 1550 1549 1548 1547 1546 1545 1544 1543 1542 1542 1541 1541 1540
1504 1504 1498 1509 1514 1520 1514 1511 1504 1505 1507 1509 1511 1514 1517 1520 1523 1526 1529 1532 1534 1537 1539 1541 1543 1544 1545 1546 1547 1548 1548 1549 1550 1549 1549 1549 1548 1548 1547 1545 1544 1543 1542 1541 1540 1540 1539 1539 1538
1498 1497 1505 1511 1526 1529 1519 1515 1508 1504 1504 1506 1509 1512 1516 1519 1522 1525 1528 1531 1533 1535 1538 1540 1542 1543 1544 1545 1546 1547 1547 1547 1548 1548 1548 1547 1547 1546 1545 1544 1543 1542 1540 1539 1539 1538 1538 1537 1537
1503 1503 1503 1505 1507 1521 1524 1513 1496 1499 1502 1504 1508 1512 1515 1518 1521 1525 1527 1530 1532 1534 1537 1538 1540 1542 1543 1544 1545 1546 1546 1546 1547 1547 1547 1546 1546 1545 1544 1543 1542 1540 1539 1538 1538 1537 1537 1536 1536
1493 1495 1501 1512 1516 1511 1511 1508 1495 1498 1501 1504 1508 1512 1516 1519 1521 1524 1526 1529 1531 1534 1536 1537 1539 1541 1542 1543 1544 1545 1545 1546 1546 1546 1546 1545 1545 1544 1543 1542 1541 1540 1539 1538 1537 1537 1536 1536 1535